TimePST,TemperatureF,Dew PointF,Humidity,Sea Level PressureIn,VisibilityMPH,Wind Direction,Wind SpeedMPH,Gust SpeedMPH,PrecipitationIn,Events,Conditions,WindDirDegrees,DateUTC
12:53 AM,27.0,26.1,96,30.13,0.5,Calm,Calm,-,N/A,,Mist,0,2013-12-22 08:53:00
1:16 AM,28.4,26.6,93,30.05,0.5,Calm,Calm,-,0.00,,Light Freezing Drizzle,0,2013-12-22 09:16:00
1:53 AM,27.0,26.1,96,30.14,0.5,Calm,Calm,-,0.00,,Mist,0,2013-12-22 09:53:00
2:53 AM,28.0,26.1,92,30.16,0.5,Calm,Calm,-,N/A,Fog,Light Freezing Fog,0,2013-12-22 10:53:00
3:53 AM,28.0,26.1,92,30.16,0.5,Calm,Calm,-,N/A,Fog,Light Freezing Fog,0,2013-12-22 11:53:00
4:44 AM,28.4,26.6,93,30.09,0.5,Calm,Calm,-,N/A,Fog,Light Freezing Fog,0,2013-12-22 12:44:00
4:53 AM,28.0,27.0,96,30.17,0.5,Calm,Calm,-,N/A,Fog,Light Freezing Fog,0,2013-12-22 12:53:00
5:53 AM,27.0,26.1,96,30.19,0.5,NE,3.5,-,N/A,Fog,Light Freezing Fog,40,2013-12-22 13:53:00
6:53 AM,27.0,26.1,96,30.21,0.2,NE,3.5,-,N/A,Fog,Light Freezing Fog,50,2013-12-22 14:53:00
7:53 AM,28.0,26.1,92,30.22,0.2,NE,4.6,-,N/A,Fog,Light Freezing Fog,50,2013-12-22 15:53:00
8:53 AM,28.0,27.0,96,30.24,0.1,Calm,Calm,-,N/A,Fog,Light Freezing Fog,0,2013-12-22 16:53:00
9:53 AM,28.9,28.0,96,30.27,0.2,NE,5.8,-,N/A,Fog,Light Freezing Fog,40,2013-12-22 17:53:00
10:53 AM,30.0,28.0,92,30.28,0.2,ENE,3.5,-,N/A,,Overcast,70,2013-12-22 18:53:00
11:53 AM,30.0,28.9,96,30.28,0.2,NE,3.5,-,N/A,,Overcast,50,2013-12-22 19:53:00
12:53 PM,30.0,28.9,96,30.28,0.2,NE,4.6,-,N/A,,Overcast,40,2013-12-22 20:53:00
1:53 PM,30.0,28.9,96,30.28,0.2,NE,4.6,-,N/A,,Overcast,50,2013-12-22 21:53:00
2:53 PM,30.9,28.9,92,30.28,0.2,ENE,3.5,-,N/A,,Overcast,60,2013-12-22 22:53:00
3:53 PM,30.9,30.0,96,30.30,1.0,Calm,Calm,-,N/A,,Overcast,0,2013-12-22 23:53:00
4:46 PM,30.2,30.2,100,30.22,2.0,East,4.6,-,N/A,,Overcast,90,2013-12-23 00:46:00
4:53 PM,30.9,28.9,92,30.30,1.0,NE,5.8,-,N/A,,Overcast,40,2013-12-23 00:53:00
5:53 PM,30.9,30.0,96,30.31,1.0,Calm,Calm,-,N/A,,Overcast,0,2013-12-23 01:53:00
6:10 PM,30.2,30.2,100,30.23,0.2,NE,3.5,-,N/A,Fog,Light Freezing Fog,50,2013-12-23 02:10:00
6:43 PM,30.2,30.2,100,30.23,0.2,ENE,3.5,-,N/A,Fog,Light Freezing Fog,60,2013-12-23 02:43:00
6:53 PM,30.9,30.0,96,30.31,0.2,NE,4.6,-,N/A,Fog,Light Freezing Fog,40,2013-12-23 02:53:00
7:53 PM,30.0,30.0,100,30.29,0.2,ENE,3.5,-,N/A,Fog,Light Freezing Fog,70,2013-12-23 03:53:00
8:53 PM,30.0,28.9,96,30.30,0.2,NE,4.6,-,N/A,Fog,Light Freezing Fog,50,2013-12-23 04:53:00
9:53 PM,30.0,30.0,100,30.30,0.2,ENE,3.5,-,N/A,Fog,Light Freezing Fog,70,2013-12-23 05:53:00
10:53 PM,30.9,30.9,100,30.28,0.2,Calm,Calm,-,N/A,Fog,Light Freezing Fog,0,2013-12-23 06:53:00
11:53 PM,32.0,32.0,100,30.28,0.2,SE,3.5,-,0.01,Fog-Rain,Light Rain,140,2013-12-23 07:53:00